This is the latest recevied weather packets stored in our database for station/object VE6HFD-WX. If no packets are shown the sender has not sent any weather packets the latest 1 day(s).
| Time | Temp. | Humidity | Pressure | Rain* | Wind** | Luminosity | Snow |
|---|---|---|---|---|---|---|---|
| 1778109337 | 16.11° C | 29% | 1007.7 hPa | 0 mm | - | - | - |
| 1778107777 | 16.67° C | 29% | 1008 hPa | 0 mm | - | - | - |
| 1778107117 | 16.11° C | 28% | 1008.2 hPa | 0 mm | - | - | - |
| 1778106787 | 16.67° C | 29% | 1008.4 hPa | 0 mm | - | - | - |
| 1778106157 | 16.67° C | 28% | 1008.4 hPa | 0 mm | - | - | - |
| 1778105857 | 16.67° C | 28% | 1008.4 hPa | 0 mm | - | - | - |
| 1778098237 | 15° C | 29% | 1010.1 hPa | 0 mm | - | - | - |
| 1778096377 | 14.44° C | 30% | 1010.5 hPa | 0 mm | - | - | - |
| 1778096077 | 14.44° C | 31% | 1010.6 hPa | 0 mm | - | - | - |
| 1778095117 | 14.44° C | 31% | 1010.8 hPa | 0 mm | - | - | - |
| 1778071868 | -3.89° C | 82% | 1016 hPa | 0 mm | - | - | - |
| 1778058397 | -3.89° C | 81% | 1018.3 hPa | 0 mm | - | - | - |
| 1778052397 | -2.22° C | 66% | 1019.4 hPa | 0 mm | - | - | - |
| 1778048618 | -0.56° C | 63% | 1019.8 hPa | 0 mm | - | - | - |
| 1778047988 | -1.11° C | 64% | 1019.7 hPa | 0 mm | - | - | - |
| 1778047028 | -1.11° C | 63% | 1019.7 hPa | 0 mm | - | - | - |
| 1778046697 | -1.11° C | 63% | 1019.7 hPa | 0 mm | - | - | - |
| 1778046368 | -1.11° C | 61% | 1019.7 hPa | 0 mm | - | - | - |
| 1778046038 | 0° C | 57% | 1019.7 hPa | 0 mm | - | - | - |
| 1778044778 | 1.11° C | 56% | 1020 hPa | 0 mm | - | - | - |
| 1778044448 | 0.56° C | 57% | 1020.1 hPa | 0 mm | - | - | - |
| 1778044118 | 0.56° C | 56% | 1020.2 hPa | 0 mm | - | - | - |
| 1778043788 | 0.56° C | 57% | 1020.2 hPa | 0 mm | - | - | - |
| 1778043158 | 1.11° C | 60% | 1020.3 hPa | 0 mm | - | - | - |
| 1778042858 | 1.11° C | 59% | 1020.3 hPa | 0 mm | - | - | - |
* Rain latest hour (hover to see other rain measurements)
** Current wind speed in m/s (hover to see current wind gust speed)